Regional Weather Roundup
Issued by NWS

Home | Current Version | Previous Version | Graphics & Text | Print | Product List | Glossary On
Versions: 1 2 3 4 5 6 7 8 9 10 11 12 13 14 15 16 17 18 19 20 21 22 23 24 25 26 27 28 29 30 31 32 33 34 35 36 37 38 39 40 41 42 43 44 45 46 47 48 49 50
367
ASUS43 KFSD 280302
RWRSD

WEATHER ROUNDUP FOR SOUTH DAKOTA
NATIONAL WEATHER SERVICE SIOUX FALLS SD
1000 PM CDT THU APR 27 2017

NOTE: "FAIR" INDICATES FEW OR NO CLOUDS BELOW 12,000 FEET WITH NO
SIGNIFICANT WEATHER AND/OR OBSTRUCTIONS TO VISIBILITY.


SDZ001>005-009-010-012>017-280400-
NORTHWEST AND NORTH CENTRAL SOUTH DAKOTA

CITY           SKY/WX    TMP DP  RH WIND       PRES   REMARKS
BUFFALO          N/A     41  26  55 E13       29.67R
FAITH            N/A     35  31  85 S9        29.74R WCI  28
MOBRIDGE       CLEAR     42  23  46 NE13      29.75R
$$

SDZ012>016-024>037-041>051-057-063-072>074-280400-
SOUTHWEST AND SOUTH CENTRAL SOUTH DAKOTA

CITY           SKY/WX    TMP DP  RH WIND       PRES   REMARKS
RAPID CTY ARPT CLOUDY    42  32  67 E10       29.71R
PIERRE         CLEAR     36  29  75 N7        29.74R
CUSTER         LGT SNOW  31  28  89 NE10      29.66R FOG     WCI  22
ELLSWORTH AFB  CLOUDY    42  32  68 E12       29.71R
PHILIP         PTCLDY    39  31  72 NE12      29.73R
PINE RIDGE     LGT RAIN  42  40  92 E9        29.67R
SPEARFISH      CLOUDY    39  32  75 E10       29.71R
WINNER         FAIR      43  32  65 E9        29.74R
$$

SDZ004>011-016>023-039-040-280400-
NORTHEAST SOUTH DAKOTA

CITY           SKY/WX    TMP DP  RH WIND       PRES   REMARKS
ABERDEEN       CLEAR     35  27  72 CALM      29.78R
WATERTOWN      CLEAR     36  28  73 SE5       29.78R
BROOKINGS      CLEAR     37  27  67 E6        29.81R
SISSETON         N/A     38  32  79 SW8       29.77R
$$

SDZ017-020-022-023-036>040-048>070-280400-
SOUTHEAST SOUTH DAKOTA

CITY           SKY/WX    TMP DP  RH WIND       PRES   REMARKS
SIOUX FALLS    CLEAR     39  30  70 N6        29.81R
HURON          CLEAR     38  29  70 SE5       29.80R
CHAMBERLAIN    CLEAR     42  32  67 NE6       29.77R
MITCHELL       CLEAR     38  29  70 NE7       29.80R
YANKTON        CLEAR     43  30  61 N8        29.78R
$$

ABBREVIATIONS USED IN REMARKS
   TC - TEMPERATURE IN CELSIUS
  WCI - WIND CHILL INDEX
   HX - HEAT INDEX
  VSB - VISIBILITY





USA.gov is the U.S. government's official web portal to all federal, state and local government web resources and services.